Miami, FL

3:58 PM EST on December 09, 2019 (GMT -0500)
Miami International

Weather History for KMIA - October, 2019

Change the Weather History Date:

Saturday, October 12, 2019

  Actual Average Record
Temperature  
Mean Temperature 81 °F 81 °F  
Max Temperature 85 °F 87 °F 91 °F (1986)
Min Temperature 76 °F 74 °F 60 °F (1903)
Degree Days  
Heating Degree Days 0 0  
Month to date heating degree days 0 0  
Since 1 July heating degree days 0 0  
Cooling Degree Days 16 16  
Month to date cooling degree days 215 197  
Year to date cooling degree days 4306 3809  
Growing Degree Days 30 (Base 50)    
Moisture  
Dew Point 70 °F    
Average Humidity 69    
Maximum Humidity 79    
Minimum Humidity 58    
Precipitation  
Precipitation 0.24 in 0.23 in 4.31 in (1908)
Month to date precipitation 3.10 3.16  
Year to date precipitation 58.27 53.42  
Snow  
Snow 0.00 in - - ()
Month to date snowfall 0.0  
Since 1 July snowfall 0.0  
Since 1 September snowfall 0.0  
Snow Depth 0.00 in    
Sea Level Pressure  
Sea Level Pressure 29.97 in    
Wind  
Wind Speed 11 mph (NE)    
Max Wind Speed 20 mph    
Max Gust Speed 25 mph    
Visibility 10 miles    
Events Rain    
T = Trace of Precipitation, MM = Missing Value Source: NWS Daily Summary

Daily Weather History Graph

Daily Weather History Graph

Search for Another Location

Airport or City:

Astronomy

Oct. 12, 2019 Rise Set
Actual Time 7:18 AM EDT 6:56 PM EDT
Civil Twilight 6:55 AM EDT 7:19 PM EDT
Nautical Twilight 6:28 AM EDT 7:46 PM EDT
Astronomical Twilight 6:01 AM EDT 8:13 PM EDT
Moon 6:39 PM EDT (10/12) 6:09 AM EDT (10/12)
Length of Visible Light 12h 24m
Length of Day
11h 38m
Waxing Gibbous, 99% of the Moon is Illuminated
Oct 12
Waxing Gibbous
Oct 13
Full
Oct 21
Last Quarter
Oct 27
New
Nov 4
First Quarter

Hourly Weather History & Observations

Time (EDT) Temp. Heat Index Dew Point Humidity Pressure Visibility Wind Dir Wind Speed Gust Speed Precip Events Conditions
12:53 AM 80.1 °F 83.2 °F 70.0 °F 71% 29.97 in 10.0 mi ENE 9.2 mph - N/A   Mostly Cloudy
1:53 AM 80.1 °F 83.2 °F 70.0 °F 71% 29.96 in 10.0 mi ENE 11.5 mph - N/A   Mostly Cloudy
2:53 AM 78.1 °F - 72.0 °F 81% 29.95 in 10.0 mi ESE 17.3 mph 25.3 mph 0.02 in   Mostly Cloudy
3:53 AM 78.1 °F - 72.0 °F 81% 29.94 in 10.0 mi ENE 5.8 mph - 0.22 in   Mostly Cloudy
4:53 AM 77.0 °F - 69.1 °F 76% 29.93 in 10.0 mi NNE 8.1 mph - 0.00 in Rain Light Rain
5:53 AM 78.1 °F - 69.1 °F 74% 29.94 in 10.0 mi NNE 5.8 mph - 0.00 in   Mostly Cloudy
6:53 AM 79.0 °F - 68.0 °F 69% 29.95 in 10.0 mi ENE 9.2 mph - N/A   Scattered Clouds
7:53 AM 78.1 °F - 68.0 °F 71% 29.96 in 10.0 mi NE 6.9 mph - N/A   Scattered Clouds
8:53 AM 80.1 °F 82.9 °F 69.1 °F 69% 29.96 in 10.0 mi NE 8.1 mph - N/A   Scattered Clouds
9:39 AM 82.9 °F 87.0 °F 70.0 °F 65% 29.96 in 10.0 mi NE 15.0 mph 20.7 mph N/A   Mostly Cloudy
9:53 AM 82.9 °F 87.0 °F 70.0 °F 65% 29.96 in 10.0 mi ENE 15.0 mph - N/A   Mostly Cloudy
10:00 AM 82.0 °F 86.3 °F 71.1 °F 69% 29.97 in 10.0 mi ENE 10.4 mph 20.7 mph N/A   Scattered Clouds
10:38 AM 82.0 °F 86.3 °F 71.1 °F 69% 29.98 in 10.0 mi ENE 13.8 mph 18.4 mph N/A   Overcast
10:53 AM 81.0 °F 85.2 °F 72.0 °F 74% 29.98 in 8.0 mi ENE 11.5 mph - 0.00 in Rain Light Rain
11:53 AM 82.9 °F 87.5 °F 71.1 °F 67% 29.98 in 10.0 mi NE 15.0 mph 20.7 mph 0.00 in   Mostly Cloudy
12:33 PM 84.9 °F 90.1 °F 71.1 °F 63% 29.98 in 10.0 mi ENE 11.5 mph 19.6 mph N/A   Mostly Cloudy
12:53 PM 84.0 °F 89.0 °F 71.1 °F 65% 29.97 in 10.0 mi ENE 11.5 mph - N/A   Mostly Cloudy
1:21 PM 84.0 °F 89.0 °F 71.1 °F 65% 29.97 in 10.0 mi NE 11.5 mph - N/A   Mostly Cloudy
1:53 PM 82.9 °F 87.5 °F 71.1 °F 67% 29.96 in 10.0 mi NE 12.7 mph - N/A   Overcast
2:50 PM 82.4 °F 87.2 °F 71.6 °F 70% 29.95 in 10.0 mi NNE 11.5 mph - 0.00 in Rain Light Rain
2:53 PM 82.0 °F 86.3 °F 71.1 °F 69% 29.95 in 10.0 mi NE 8.1 mph - 0.00 in   Overcast
3:53 PM 82.9 °F 86.5 °F 69.1 °F 63% 29.95 in 10.0 mi NE 11.5 mph - N/A   Mostly Cloudy
4:53 PM 82.9 °F 85.4 °F 66.9 °F 58% 29.95 in 10.0 mi ENE 15.0 mph - N/A   Mostly Cloudy
5:53 PM 82.0 °F 85.5 °F 69.1 °F 65% 29.96 in 10.0 mi ENE 9.2 mph 18.4 mph N/A   Mostly Cloudy
6:53 PM 82.0 °F 85.5 °F 69.1 °F 65% 29.97 in 10.0 mi ENE 12.7 mph 19.6 mph N/A   Mostly Cloudy
7:53 PM 81.0 °F 84.1 °F 69.1 °F 67% 29.98 in 10.0 mi NE 10.4 mph - N/A   Mostly Cloudy
8:53 PM 81.0 °F 84.4 °F 70.0 °F 69% 29.99 in 10.0 mi NE 15.0 mph 21.9 mph N/A   Mostly Cloudy
9:53 PM 80.1 °F 83.8 °F 72.0 °F 76% 30.01 in 10.0 mi NE 12.7 mph - 0.00 in   Overcast
10:53 PM 80.1 °F 83.6 °F 71.1 °F 74% 30.02 in 10.0 mi East 16.1 mph 21.9 mph 0.00 in   Mostly Cloudy
11:53 PM 81.0 °F 84.4 °F 70.0 °F 69% 30.02 in 10.0 mi ENE 15.0 mph 20.7 mph N/A   Mostly Cloudy